Home > Weather > Jerusalem > Past weeks

Flag for Israel Past Weather in Jerusalem, Israel — Yesterday and Last 2 Weeks

Now
91 °F

Passing clouds.


Feels Like: 94 °F
Forecast: 71 / 85 °F
Wind: 12 mph from West

Location: Ben Gurion International Airport

Current Time: Jul 26, 2016 at 3:24:37 PM

Latest Report: Jul 26, 2016 at 2:50 PM


Visibility: N/A

Pressure: 29.71 "Hg (27.27 "Hg at 769m altitude)

Humidity: 44%

Dew Point: 66 °F

Location of JerusalemLocation

Past Weather in Jerusalem — Graph

°F

Jerusalem Temperature Yesterday

Maximum temperature yesterday: 90 °F (at 11:50 AM)
Minimum temperature yesterday: 79 °F (at 1:20 AM)
Average temperature yesterday: 83 °F

High & Low Weather Summary for the Past Weeks

 TemperatureHumidityPressure
High91 °F (Jul 13, 10:20 AM)84% (Jul 12, 10:20 PM)29.89 "Hg (Jul 12, 10:20 PM)
Low73 °F (Jul 22, 5:20 AM)33% (Jul 21, 4:50 PM)29.65 "Hg (Jul 19, 11:20 AM)
Average83 °F64%29.75 "Hg
* Reported Jul 11 2:20 PM — Jul 26 2:20 PM, Jerusalem, Weather by CustomWeather, © 2016

Note: Actual official high and low records may vary slightly from our data, if they occured in-between our weather recording intervals... More about our weather records

Advertising

Jerusalem Weather History for the Previous 24 Hours

Scroll right to see more
 ConditionsComfort  
Time TempWeatherWind HumidityBarometerVisibility
2:20 PM
Tue, Jul 26
91 °FPassing clouds.12 mph46%29.71 "HgN/A
1:50 PM90 °FPassing clouds.10 mph52%29.71 "HgN/A
1:20 PM91 °FPassing clouds.13 mph52%29.71 "HgN/A
12:50 PM91 °FPassing clouds.12 mph52%29.71 "HgN/A
12:20 PM91 °FPassing clouds.8 mph56%29.71 "HgN/A
11:50 AM90 °FPassing clouds.8 mph55%29.74 "HgN/A
11:20 AM90 °FSunny.7 mph52%29.74 "Hg10 mi
10:50 AM88 °FPassing clouds.6 mph59%29.74 "Hg6 mi
10:20 AM86 °FPassing clouds.6 mph59%29.74 "Hg6 mi
9:50 AM86 °FPassing clouds.5 mph62%29.74 "HgN/A
9:20 AM82 °FScattered clouds.6 mph66%29.74 "HgN/A
8:50 AM82 °FPartly sunny.6 mph70%29.74 "HgN/A
8:20 AM81 °FPartly sunny.6 mph74%29.74 "HgN/A
7:50 AM81 °FPartly sunny.6 mph74%29.74 "HgN/A
7:20 AM79 °FPartly sunny.8 mph74%29.74 "HgN/A
6:50 AM77 °FPassing clouds.6 mph79%29.74 "HgN/A
6:20 AM77 °FPassing clouds.8 mph79%29.74 "HgN/A
5:50 AM77 °FPassing clouds.9 mph79%29.74 "HgN/A
5:20 AM77 °FPassing clouds.6 mph83%29.71 "HgN/A
4:50 AM77 °FPassing clouds.6 mph79%29.71 "HgN/A
4:20 AM77 °FPassing clouds.7 mph83%29.71 "HgN/A
3:50 AM77 °FPassing clouds.6 mph83%29.71 "HgN/A
3:20 AM77 °FClear.6 mph83%29.71 "Hg10 mi
2:50 AM77 °FClear.6 mph83%29.71 "Hg10 mi
2:20 AM77 °FClear.5 mph83%29.71 "Hg10 mi
1:50 AM79 °FClear.5 mph84%29.71 "Hg10 mi
1:20 AM79 °FClear.6 mph84%29.71 "Hg10 mi
12:50 AM79 °FClear.5 mph84%29.71 "Hg10 mi
12:20 AM79 °FClear.5 mph84%29.71 "Hg10 mi
11:20 PM
Mon, Jul 25
81 °FClear.3 mph79%29.71 "Hg10 mi
10:50 PM81 °FClear.2 mph79%29.71 "Hg10 mi
10:20 PM81 °FClear.3 mph79%29.71 "Hg10 mi
9:50 PM81 °FClear.3 mph79%29.71 "Hg10 mi
9:20 PM82 °FClear.2 mph74%29.71 "Hg10 mi
8:50 PM82 °FClear.5 mph74%29.71 "Hg10 mi
8:20 PM82 °FSunny.5 mph74%29.71 "Hg10 mi
7:50 PM84 °FSunny.6 mph70%29.68 "Hg10 mi
7:20 PM84 °FSunny.7 mph70%29.68 "Hg10 mi
6:50 PM86 °FSunny.7 mph66%29.68 "Hg10 mi
6:20 PM86 °FSunny.9 mph66%29.68 "Hg10 mi
5:50 PM86 °FPassing clouds.9 mph66%29.68 "HgN/A
5:20 PM88 °FPassing clouds.9 mph62%29.65 "HgN/A
4:50 PM88 °FPassing clouds.9 mph62%29.65 "HgN/A
4:20 PM88 °FPassing clouds.12 mph62%29.65 "HgN/A
3:50 PM88 °FPassing clouds.10 mph62%29.65 "HgN/A
3:20 PM88 °FPassing clouds.10 mph62%29.65 "HgN/A
Weather by CustomWeather, © 2016

See weather overviewHow to use our weather pages